Location: Stoke Bliss
(52.2667°N, 2.5167°W)
Time: 21:34:46
(UTC+00:00)

Cosmos 1933 Rocket - Pass Details

Date: 03 March 2021
Orbit: 607 x 630 km, 82.5° (Epoch: 15 April)

Event Time Altitude Azimuth Distance (km) Brightness Sun altitude
Rises 18:57:31 0° 171° (S) 2,863 6.8 -10.6°
Reaches altitude 10° 18:59:47 10° 164° (SSE) 1,967 5.9 -10.9°
Maximum altitude 19:03:55 44° 93° (E) 862 3.8 -11.6°
Drops below altitude 10° 19:08:06 10° 22° (NNE) 1,996 6.0 -12.2°
Sets 19:10:25 0° 16° (NNE) 2,911 6.9 -12.6°
